Weather Roundup
Issued by NWS Springfield, MO

Home | Current Version | Previous Version | Text Only | Print | Product List | Glossary On
Versions: 1 2 3 4 5 6 7 8 9 10 11 12 13 14 15 16 17 18 19 20 21 22 23 24 25 26 27 28 29 30 31 32 33 34 35 36 37 38 39 40 41 42 43 44 45 46 47 48 49 50
000
NZUS99 KSGF 250707
HRRSGF

HOURLY WEATHER
NATIONAL WEATHER SERVICE SPRINGFIELD MO
200 AM CDT SAT OCT 25 2014

......SGF CWA......

CITY           SKY/WX    TMP DP  RH WIND       PRES   REMARKS
SPRINGFIELD    CLEAR     58  56  93 S3        30.05R
JOPLIN         CLEAR     66  60  81 SW10      30.05R
WEST PLAINS    CLEAR     59  56  89 W5        30.07R
ROLLA          CLEAR     60  57  89 SW12      30.00F
OSAGE BEACH    CLEAR     59  55  88 SW3       30.02F
BRANSON        CLEAR     63  59  88 SW6       30.07S

......SURROUNDING SGF CWA......

CITY           SKY/WX    TMP DP  RH WIND       PRES   REMARKS
CHANUTE        CLEAR     60  59  96 S5        30.02S
PARSONS        CLEAR     60  59  96 CALM      30.04R
COFFEYVILLE    CLEAR     62  60  93 S10       30.02S
EMPORIA        CLEAR     62  60  93 CALM      30.01S
GROVE OK       CLEAR     61  61 100 CALM      30.06F
ROGERS AR      CLEAR     62  58  86 S8        30.09S
SILOAM SPRINGS CLEAR     59  54  82 S5        30.09S
HARRISON AR    CLEAR     59  57  93 CALM      30.07S
NEAR YELLVILLE   N/A     57  52  82 CALM      30.06S VSB 3/4

......KANSAS AND MISSOURI......

CITY           SKY/WX    TMP DP  RH WIND       PRES   REMARKS
KANSAS CTY INT CLEAR     60  59  96 W6        30.00R
DOWNTOWN KC    CLEAR     65  61  87 CALM      29.99S
COLUMBIA       CLEAR     63  60  90 W7        30.00S
SEDALIA        PTCLDY    65  60  84 SW12      30.01S
ST JOSEPH      FOG       53  53 100 N5        30.01R VSB<1/4
ST LOUIS       PTCLDY    64  57  78 W3        29.98F
SPIRIT OF STL  CLEAR     64  58  80 SW10      29.97F
KIRKSVILLE     FOG       54  54 100 SW5       29.99S VSB 1
WICHITA        CLEAR     59  56  89 S5        30.02S
TOPEKA         CLEAR     58  58 100 CALM      30.01S FOG
OLATHE         CLEAR     60  60 100 SW3       30.00S FOG

......TENNESSEE......

CITY           SKY/WX    TMP DP  RH WIND       PRES   REMARKS
MEMPHIS        CLEAR     59  54  83 CALM      30.09R
NASHVILLE      PTCLDY    48  46  93 S3        30.09S

......ARKANSAS.......

CITY           SKY/WX    TMP DP  RH WIND       PRES   REMARKS
FAYETTEVILLE   CLEAR     57  56  96 S7        30.09S
FT SMITH       CLEAR     60  57  89 NE3       30.08S
LITTLE ROCK    CLEAR     60  54  80 W6        30.10S

......OKLAHOMA.......

CITY           SKY/WX    TMP DP  RH WIND       PRES   REMARKS
TULSA          CLEAR     68  61  78 S9        30.03S
PONCA CITY     CLEAR     66  60  81 S3        30.02S
MCALESTER      CLEAR     65  59  81 S3        30.09S
OKLAHOMA CITY  CLEAR     62  59  90 S7        30.06F

......IOWA............

CITY           SKY/WX    TMP DP  RH WIND       PRES   REMARKS
DES MOINES     FOG       53  51  93 NW3       29.99R VSB 1
QUAD CITIES    FOG       51  49  92 CALM      29.93F VSB<1/4

......ILLINOIS........

CITY           SKY/WX    TMP DP  RH WIND       PRES   REMARKS
QUINCY         MOCLDY    59  57  93 W5        29.97R
CHICAGO        PTCLDY    57  50  77 SW6       29.89F




USA.gov is the U.S. government's official web portal to all federal, state and local government web resources and services.